Humidity-temperature Sensor

Selected Measurement Type: Air Temperature

 
Air Temperature [°C]     6 entries per hour
Showing data from 2/28/2017 (00:00:00 Z) to 2/27/2017 (00:01:00 Z)
Previous Next [ Day | 3-Days | 7-Days ]
First Last
Prev [ Day | 3-Days | 7-Days ] Next
First Last

Start Time:     :
End Time:     :     
Time (in GMT) :00 :50 :40 :30 :20 :10
Previous Next [ Day | 3-Days | 7-Days ]
First Last
Prev [ Day | 3-Days | 7-Days ] Next
First Last


123 => good data
MM => data is determined as missing
-- => data not received/configured
Back to Top Back to Top
2/28/2017 00:00 to 23:10 26.45 26.25 26.04 26.15 26.11 26.07
2/27/2017 23:00 to 22:10 26.26 26.26 26.37 26.35 26.43 26.33
2/27/2017 22:00 to 21:10 26.22 26.38 26.30 26.34 26.43 26.12
2/27/2017 21:00 to 20:10 26.26 26.22 26.20 26.02 26.08 25.88
2/27/2017 20:00 to 19:10 25.81 25.71 25.69 25.66 25.77 25.65
2/27/2017 19:00 to 18:10 25.63 25.59 25.55 25.54 25.54 25.62
2/27/2017 18:00 to 17:10 25.62 25.61 25.66 25.86 26.07 25.92
2/27/2017 17:00 to 16:10 25.97 26.41 26.28 26.20 26.43 26.44
2/27/2017 16:00 to 15:10 26.23 26.21 25.97 25.83 25.81 25.60
2/27/2017 15:00 to 14:10 25.26 25.25 25.04 24.96 24.99 25.04
2/27/2017 14:00 to 13:10 25.06 25.18 25.23 25.27 25.33 25.42
2/27/2017 13:00 to 12:10 25.31 25.30 25.30 25.33 25.44 25.39
2/27/2017 12:00 to 11:10 25.33 25.39 25.40 25.16 25.20 25.15
2/27/2017 11:00 to 10:10 25.13 25.32 25.18 25.05 25.13 25.16
2/27/2017 10:00 to 9:10 25.22 25.33 25.12 25.08 24.78 24.88
2/27/2017 09:00 to 8:10 24.67 24.54 24.70 24.68 24.69 24.87
2/27/2017 08:00 to 7:10 25.02 24.99 25.28 25.42 25.66 25.47
2/27/2017 07:00 to 6:10 25.59 25.59 25.59 25.51 25.58 25.50
2/27/2017 06:00 to 5:10 25.25 25.54 25.42 25.40 25.35 25.29
2/27/2017 05:00 to 4:10 25.70 25.30 25.06 25.14 25.18 25.04
2/27/2017 04:00 to 3:10 24.85 24.86 24.88 24.75 24.80 24.93
2/27/2017 03:00 to 2:10 25.02 25.10 24.90 25.00 24.82 24.65
2/27/2017 02:00 to 1:10 24.96 24.94 25.04 25.13 25.20 25.56
2/27/2017 01:00 to 0:10 25.79 25.72 25.85 25.88 25.82 25.72